Regional Weather Roundup
Issued by NWS Green Bay, WI

Home | Current Version | Previous Version | Text Only | Print | Product List | Glossary On
Versions: 1 2 3 4 5 6 7 8 9 10 11 12 13 14 15 16 17 18 19 20 21 22 23 24 25 26 27 28 29 30 31 32 33 34 35 36 37 38 39 40 41 42 43 44 45 46 47 48 49 50
000
ASUS43 KGRB 050500
RWRGRB

NORTH-CENTRAL AND NORTHEAST WISCONSIN REGIONAL WEATHER ROUNDUP
NATIONAL WEATHER SERVICE GREEN BAY WI
1200 AM CDT WED AUG 05 2015

WIZ005-009-010>012-018-019-050600-
NORTH CENTRAL WISCONSIN

CITY           SKY/WX    TMP DP  RH WIND       PRES   REMARKS
IRONWOOD         N/A     46  46 100 CALM      30.06R VSB 3/4
MANITOWISH WTR NOT AVBL
ARBOR VITAE    NOT AVBL
EAGLE RIVER    NOT AVBL
LAND O LAKES   NOT AVBL
RHINELANDER    MOCLDY    56  51  84 NE3       30.09R
PHILLIPS       CLOUDY    58  52  79 NE3       30.08R
ANTIGO         NOT AVBL
TOMAHAWK       NOT AVBL
MERRILL        NOT AVBL
$$

WIZ013-073-050600-
NORTHEAST WISCONSIN

CITY           SKY/WX    TMP DP  RH WIND       PRES   REMARKS
IRON MOUNTAIN  CLEAR     49  47  93 CALM      30.06R
MARINETTE      MOCLDY    59  54  82 NE6       30.05R
$$

WIZ017-030-035>037-045-050600-
CENTRAL WISCONSIN

CITY           SKY/WX    TMP DP  RH WIND       PRES   REMARKS
MEDFORD        NOT AVBL
WAUSAU         CLEAR     61  53  75 N5        30.04R
MOSINEE        NOT AVBL
MARSHFIELD     CLEAR     59  53  80 CALM      30.05R
WISC RAPIDS    CLEAR     57  52  83 CALM      30.05R
STEVENS POINT  NOT AVBL
WAUPACA        NOT AVBL
SHAWANO        NOT AVBL
CLINTONVILLE   CLEAR     57  54  88 CALM      30.04R
$$

WIZ038-039-048-051-050600-
FOX VALLEY

CITY           SKY/WX    TMP DP  RH WIND       PRES   REMARKS
NWS GREEN BAY  CLEAR     60  56  86 NE3       30.04R
APPLETON       NOT AVBL
OSHKOSH        CLEAR     57  53  86 CALM      30.03R
FOND DU LAC    CLEAR     58  56  93 S3        30.03R
$$

WIZ022-050-052-050600-
EAST CENTRAL WISCONSIN

CITY           SKY/WX    TMP DP  RH WIND       PRES   REMARKS
STURGEON BAY   CLOUDY    61  55  82 E5        30.07R
MANITOWOC      NOT AVBL
SHEBOYGAN      CLEAR     57  55  93 SW3       30.03R
$$

LMZ563-521-522-541>543-050600-
LAKESHORE

STATION/POSITION TIME  TEMP    WIND        PRES    VSBY  WAVE
                       AIR SEA DIR/SP/G                  HT/PER
                 (UTC) (F)     (DEG/KT/KT) (MB)    (MI)  (FT/S)
SHEBOYGAN LKSHOR 0400   69     270/  4/  4 1016.5R
KEWAUNEE LKSHORE 0400   62      40/  4/  5 1016.2R
ALGOMA MARINA    0412           50/  4/  5   N/A
NORTHPORT PIER   0440   62      30/  6/  8 1017.6R
N MID LAKE BUOY  0350   62 68  340/ 10/ 14 1016.5R         1/ 3
SISTER BAY LKSHO 0418   60      CALM  /  3   N/A
CHAMBERS ISLAND  0400   65      50/  6/  7 1016.9R
MENOMINEE LKSHOR 0400   64      50/  6/  7 1017.9R
$$


USA.gov is the U.S. government's official web portal to all federal, state and local government web resources and services.